Theta_e
324 324 323 323 324 324 323 320 314 308 309 314 316 321 322 322 327 326 324 335 337 336 335 334 334 334 334 335 336 336 336 336 337 338 339 342 348 358
321 320 321 323 325 324 324 322 319 314 309 314 318 319 321 322 326 326 326 332 332 332 331 332 331 332 332 332 333 334 334 335 335 336 336 337 339 344
318 320 325 326 325 322 323 322 318 317 313 315 318 318 316 316 321 323 323 320 321 329 331 332 329 329 329 329 330 331 333 333 333 334 335 336 337 340
320 322 322 327 323 322 322 319 317 316 313 311 313 313 313 317 319 318 321 323 320 327 331 329 328 326 327 325 324 324 325 326 327 329 331 332 335 338
320 322 322 322 323 323 322 320 318 318 314 311 312 313 315 316 317 316 317 317 321 327 327 326 327 327 325 324 323 322 320 320 321 322 324 327 329 333
323 324 325 323 321 321 323 317 317 314 311 311 310 311 313 315 316 315 316 316 316 321 322 324 325 325 325 324 324 324 321 319 318 317 318 319 321 325
324 324 324 327 332 329 319 317 314 313 311 309 308 310 311 313 312 315 314 315 315 316 314 317 317 318 318 322 324 325 323 322 321 319 318 316 316 318
317 318 321 329 327 330 331 330 320 313 310 308 308 308 309 311 315 315 314 311 310 316 314 315 317 316 318 319 324 324 323 323 322 321 319 318 317 318
317 318 321 326 328 321 325 328 327 326 321 311 308 308 309 313 314 315 310 311 313 317 314 314 316 315 319 321 322 322 321 320 319 320 319 318 317 316
321 322 321 323 323 323 322 321 321 319 320 321 318 316 314 316 316 314 309 312 315 317 317 310 315 314 318 319 322 322 321 319 318 318 317 316 314 312
323 324 323 323 325 324 324 321 322 320 321 320 320 320 320 319 318 310 310 307 308 312 315 312 315 313 314 315 318 321 319 317 317 317 317 316 313 311
319 320 324 322 321 320 321 322 318 318 318 314 313 315 317 313 319 316 314 309 309 308 311 312 312 311 310 314 316 319 319 318 315 314 314 313 311 316
319 319 319 318 315 313 315 316 318 320 319 315 314 311 311 310 312 315 317 315 310 310 316 313 310 310 311 311 312 315 317 318 318 317 313 311 311 313
320 322 320 316 314 312 312 314 314 316 314 311 308 309 310 310 312 314 318 318 318 317 318 314 313 312 309 308 311 311 313 314 315 315 316 316 313 314
321 322 320 316 314 314 312 313 314 313 312 311 310 311 312 313 313 313 316 315 315 317 322 318 317 316 314 311 311 313 309 312 315 314 316 316 317 318
318 318 318 318 316 317 316 317 315 314 314 313 313 313 314 315 314 316 314 314 312 313 314 314 319 317 313 312 312 311 313 309 314 312 312 314 317 317
308 309 310 311 312 314 315 316 317 317 314 315 314 315 316 317 315 317 316 314 312 312 311 311 312 317 315 310 307 311 312 308 309 309 310 314 315 316
306 308 310 313 313 314 315 316 317 315 314 314 314 316 315 315 315 316 317 316 314 313 313 311 311 311 308 309 317 311 307 307 310 310 311 310 312 314
309 313 314 314 313 314 315 316 316 318 318 317 316 316 315 314 313 314 315 315 314 313 312 313 312 312 308 306 308 313 307 310 311 308 309 309 310 312
313 315 315 312 315 313 314 316 314 316 315 316 315 315 313 312 311 310 311 311 311 312 311 313 312 312 309 307 307 310 309 308 308 308 307 307 312 316
316 318 314 313 312 312 314 312 313 312 314 315 312 311 310 309 308 308 309 307 308 309 308 308 311 314 311 310 306 306 307 309 310 309 308 307 308 308
319 318 317 314 313 312 312 312 312 314 310 312 308 308 309 308 306 306 308 308 309 308 307 308 309 308 306 303 302 303 305 309 310 312 312 311 309 305
319 317 315 315 314 316 313 310 310 310 309 308 304 302 303 302 302 303 303 303 306 305 305 304 301 301 300 300 302 302 304 304 305 304 304 309 310 311
Wind_Speed
5 7 5 4 6 4 3 4 3 4 3 4 4 6 6 4 8 5 6 8 11 13 11 11 13 14 13 15 16 14 13 13 13 13 12 13 14 15
3 5 2 2 3 3 4 4 3 1 2 2 3 4 6 7 9 6 6 8 9 11 15 11 14 15 14 14 15 15 13 13 13 13 13 13 13 14
0 2 4 1 2 0 2 2 2 2 3 4 2 5 6 6 6 4 5 5 5 14 14 12 13 15 15 18 19 16 14 14 15 15 14 14 15 15
3 3 4 3 4 3 1 1 0 1 1 7 4 3 4 5 3 4 5 6 6 12 15 14 16 13 11 15 19 17 15 16 17 19 16 15 14 16
4 3 5 5 5 3 3 3 2 1 1 2 5 2 3 3 3 3 3 5 5 16 15 14 14 13 19 17 13 16 15 15 16 14 14 13 13 12
5 5 5 5 5 5 5 5 3 2 2 3 4 5 3 4 2 4 7 4 5 8 10 10 12 18 18 17 17 16 14 15 12 10 11 10 12 12
6 5 5 7 11 8 3 5 4 3 2 3 4 5 6 4 4 3 5 5 3 4 3 8 6 7 8 12 14 15 15 15 15 10 11 10 9 10
6 6 6 9 10 12 14 14 9 5 5 3 4 6 8 6 5 5 4 4 4 3 2 9 6 7 7 6 15 16 13 15 12 11 11 11 11 10
6 6 6 7 9 6 8 11 11 14 13 6 7 7 6 6 4 6 7 4 5 7 2 8 4 7 8 8 12 15 14 12 13 11 12 13 13 15
7 7 7 9 9 7 7 7 9 9 11 10 11 13 10 10 6 7 7 7 6 7 3 4 3 5 7 7 14 14 10 14 11 11 11 12 14 15
7 7 7 8 13 17 12 10 13 12 9 16 15 15 14 13 13 3 7 3 4 5 3 4 6 4 4 5 6 12 15 13 14 13 14 15 14 14
6 7 12 11 15 18 11 11 11 13 10 7 6 7 9 9 15 8 6 6 5 4 5 3 4 2 4 3 4 7 6 12 14 13 13 14 14 7
5 6 6 11 11 11 10 6 10 10 9 7 8 5 6 7 8 9 6 7 5 6 7 4 3 3 3 4 3 4 5 7 6 7 10 12 12 11
9 7 7 13 13 10 6 12 16 14 5 6 5 9 10 10 10 8 8 10 8 11 11 5 4 4 3 3 7 3 5 5 5 6 6 8 11 12
8 11 13 9 12 10 16 17 15 6 7 8 10 11 11 11 11 8 9 10 9 8 8 5 6 6 4 4 7 9 6 5 5 5 5 6 6 5
8 8 10 12 13 14 9 9 7 8 10 11 10 11 9 9 10 9 10 9 5 8 8 9 7 6 4 5 5 8 8 4 6 5 5 4 5 5
0 2 4 4 6 8 8 8 8 7 2 4 5 7 8 8 10 10 8 9 9 11 8 5 7 7 6 6 4 7 7 4 6 8 4 8 6 7
3 3 3 6 7 6 7 5 4 4 3 4 1 2 5 7 6 9 8 8 8 9 7 4 4 3 2 5 9 7 3 5 8 9 4 4 8 9
5 6 8 6 4 3 2 2 2 1 5 5 4 6 4 7 9 9 9 5 4 2 2 2 5 8 9 11 4 8 5 6 7 4 5 4 7 11
8 10 8 4 4 4 4 4 4 4 4 4 2 6 4 7 7 6 4 4 4 6 7 7 6 5 2 3 5 8 11 5 5 9 4 3 8 14
4 7 6 5 4 5 5 4 5 5 4 4 3 3 4 4 5 5 6 8 7 5 6 5 5 6 4 6 8 7 5 10 13 9 5 3 5 5
3 7 7 4 5 5 4 5 5 5 4 0 2 3 4 3 4 5 5 5 5 4 6 5 5 5 4 3 8 9 8 8 8 11 10 8 5 8
5 7 5 5 5 5 3 4 4 2 3 3 4 4 4 4 5 5 4 5 5 4 4 4 3 3 4 4 8 8 11 10 5 6 4 11 14 16
Wind_Direction
50 31 13 35 23 10 39 77 103 344 310 337 343 341 344 336 336 356 350 339 346 338 339 330 323 314 307 299 291 273 278 284 284 282 281 285 286 275
76 93 56 1 54 348 16 30 62 117 309 315 312 308 328 333 329 356 342 352 331 344 333 328 329 329 324 321 318 294 274 275 277 276 272 267 264 268
94 253 260 248 207 45 38 67 45 28 311 317 311 311 328 323 326 334 8 346 335 321 316 333 339 326 333 330 330 316 286 281 273 264 260 260 262 254
330 350 325 346 329 301 226 214 187 260 159 304 297 288 282 306 302 353 342 343 324 319 329 336 322 336 331 329 316 310 300 284 278 269 255 255 255 263
293 301 290 307 295 272 262 248 240 218 202 265 295 268 266 293 307 315 303 301 316 328 327 331 319 320 319 314 305 299 295 295 301 274 257 257 256 253
278 279 269 274 271 276 250 246 239 258 245 267 296 298 262 268 259 314 313 302 316 319 313 300 311 311 310 307 307 296 291 298 291 280 261 250 257 260
269 266 271 272 270 252 227 259 245 252 278 287 284 286 298 298 287 234 260 287 294 274 299 312 316 299 304 306 304 303 295 288 282 276 266 253 242 254
271 279 273 280 285 279 266 233 210 216 239 231 256 261 271 272 278 282 278 307 313 236 323 301 315 299 293 294 299 302 306 301 288 281 267 258 254 236
256 266 273 273 273 266 272 252 247 222 218 207 240 240 263 257 252 281 286 249 257 283 217 285 270 293 300 301 304 304 307 311 306 282 273 269 256 251
241 246 242 263 267 252 259 262 257 241 233 231 231 252 237 259 218 253 257 263 271 274 222 248 262 269 280 300 303 301 306 322 321 315 303 281 267 260
245 247 231 242 258 261 264 261 267 255 238 234 244 251 241 246 251 243 263 232 274 270 236 204 279 243 238 269 281 293 302 302 303 298 303 302 302 289
256 262 268 258 264 270 264 256 257 252 254 259 259 270 261 267 277 251 244 224 227 290 244 174 276 207 306 256 258 282 277 284 289 290 299 296 291 296
233 253 258 260 256 251 235 218 231 260 266 249 257 264 272 267 268 269 237 201 206 234 257 160 261 263 200 279 276 275 270 279 284 282 284 291 295 294
239 249 253 260 281 269 254 235 245 250 244 245 249 263 268 267 262 260 233 222 221 232 266 202 227 210 224 283 285 280 280 265 264 272 281 281 286 287
239 246 257 275 276 271 260 256 256 254 244 246 245 250 246 251 255 257 245 230 232 228 243 220 213 238 188 221 269 289 293 271 244 258 272 269 275 300
247 260 258 259 267 265 273 254 240 236 233 244 255 262 268 260 254 253 250 243 229 259 245 228 218 193 227 222 231 276 281 266 291 272 260 266 277 269
79 251 250 241 257 260 260 264 272 271 292 294 279 293 310 320 299 283 261 264 256 253 255 254 235 207 202 206 272 275 281 271 283 286 297 291 276 276
171 226 267 263 273 281 295 303 338 58 325 285 211 210 274 285 261 285 280 279 292 288 277 287 278 273 308 274 209 265 250 278 291 289 275 286 295 305
239 241 257 280 286 273 226 204 239 244 242 258 258 265 287 249 252 260 253 245 263 253 210 4 326 291 281 267 272 256 256 278 295 287 257 249 286 301
266 273 275 289 251 240 246 241 248 247 242 258 266 271 270 263 272 263 254 259 253 273 291 275 245 242 245 275 293 290 236 270 290 294 259 253 265 272
283 290 271 251 233 258 262 267 272 262 255 261 238 251 264 258 272 272 266 250 246 255 280 286 268 284 271 277 277 281 288 270 271 279 245 272 280 286
270 267 257 251 254 253 245 249 254 270 297 117 300 289 291 300 290 286 297 292 287 277 274 272 283 289 289 289 285 287 284 285 277 269 251 219 267 291
230 238 255 259 259 250 239 259 261 275 88 53 1 335 328 310 289 280 281 297 299 293 284 289 295 282 264 252 268 275 271 286 265 296 285 266 273 269